User: anonymous   Login
Location: Melbourne
(37.8170°S, 144.9670°E)
Time: 21:55:01
(UTC+10:00)
Language:

ERBS - Orbit

View from above orbital plane
View from above orbital plane
View from above satellite
View from above satellite

Ground track
Ground track

The orbit data is extracted from the following two-line orbital elements,

1 15354U 84108B   16207.17316829  .00003382  00000-0  89595-4 0  9998
2 15354  57.0091 103.7914 0010722 174.8937 185.2229 15.41170595747744
Epoch (UTC): 25 July 2016 04:09:21
Eccentricity: 0.0010722
inclination: 57.0091°
perigee height: 435 km
apogee height: 450 km
right ascension of ascending node: 103.7914°
argument of perigee: 174.8937°
revolutions per day: 15.41170595
mean anomaly at epoch: 185.2229°
orbit number at epoch: 74774

The dashed part of the orbit path shows where the satellite is in the earth's shadow,  

DLR